[Iaude] MPEC C28: 2024 BX5 [a=0.93,e=0.13,i=0.3,H=27.5]
    mpec at marsden.cfa.harvard.edu 
    mpec at marsden.cfa.harvard.edu
       
    Fri Feb  2 12:17:54 EST 2024
    
    
  
M.P.E.C. 2024-C28                              Issued 2024 February 2, 17:16 UT
     The Minor Planet Electronic Circulars contain information on unusual
         minor planets, routine data on comets and natural satellites,
         and occasional editorial announcements.  They are published
    on behalf of Division F of the International Astronomical Union by the
          Minor Planet Center, Smithsonian Astrophysical Observatory,
                          Cambridge, MA 02138, U.S.A.
			  
             Prepared using the Tamkin Foundation Computer Network
                              MPC at CFA.HARVARD.EDU
            URL https://www.minorplanetcenter.net/    ISSN 1523-6714
                                    2024 BX5                                    
Observations:
     K24B05X* C2024 01 31.48312408 49 23.065+16 49 10.82         21.02wXEC028F52
     K24B05X  C2024 01 31.49561708 49 16.506+16 49 27.89         21.42wXEC028F52
     K24B05X  C2024 01 31.50799208 49 10.069+16 49 44.71         21.15wXEC028F52
     K24B05X  C2024 01 31.52037608 49 03.627+16 50 01.06         21.11wXEC028F52
     K24B05X  C2024 01 31.58624108 48 30.130+16 51 24.03         20.98GVEC028F52
     K24B05X  C2024 01 31.58688608 48 29.843+16 51 24.78         20.80GVEC028F52
     K24B05X KC2024 02 01.22767408 43 52.88 +17 05 59.8          21.4 GVEC028H21
     K24B05X KC2024 02 01.23265908 43 50.34 +17 06 07.5          21.1 GVEC028H21
     K24B05X KC2024 02 01.23664908 43 48.37 +17 06 12.9          21.6 GVEC028H21
     K24B05X  C2024 02 01.33855608 43 09.133+17 09 21.79         21.17GVEC028F52
     K24B05X  C2024 02 01.33937408 43 08.719+17 09 22.93         21.16GVEC028F52
Observer details:
F52 Pan-STARRS 2, Haleakala.  Observers J. Herman, T. Lowe, P. Minguez, A.
    Schultz, I. Smith.  Measurers K. Chambers, T. de Boer, J. Fairlamb, H.
    Gao, M. Huber, C.-C. Lin, E. Magnier, Y. Ramanjooloo, R. Wainscoat, R.
    Weryk.  1.8-m Ritchey-Chretien + CCD.
H21 Astronomical Research Observatory, Westfield.  Observer R. Holmes.
    Measurers T. Linder, R. Holmes, L. Horn.  0.81-m f/4.0 astrograph + CCD.
Orbital elements:
2024 BX5                                                 Earth MOID = 0.0024 AU
Epoch 2023 Sept. 13.0 TT = JDT 2460200.5                Bell                    
M 356.88416              (2000.0)            P               Q                  
n   1.10553882     Peri.   29.64311     +0.88758485     +0.46062011             
a   0.9263037      Node   302.92902     -0.42373078     +0.81239951             
e   0.1283187      Incl.    0.32199     -0.18068029     +0.35754182             
P   0.89           H   27.57          G   0.15           U   7                  
Residuals in seconds of arc
240131 F52  0.2+  0.1+    240131 F52  0.3-  0.0     240201 H21  0.3+  0.1+
240131 F52  0.0   0.0     240131 F52  0.2+  0.0     240201 F52  0.0   0.1+
240131 F52  0.3+  0.1+    240201 H21  0.0   0.4-    240201 F52  0.0   0.1-
240131 F52  0.1+  0.1+    240201 H21  0.3-  0.3+
Ephemeris:
2024 BX5                 a,e,i = 0.93, 0.13, 0                   q = 0.8074
Date    TT    R. A. (2000) Decl.     Delta      r    Elong.  Phase     V
2024 01 03    11 57 59.1 +02 12 52   0.05565 0.9974   103.1    73.8    23.9
...
2024 01 18    10 35 31.0 +09 28 23   0.04650 1.0199   140.1    38.2    22.5
...
2024 01 26    09 32 52.3 +14 11 27   0.04631 1.0291   164.2    15.1    21.8
...
2024 02 01    08 45 33.7 +17 01 47   0.04948 1.0347   177.7     2.2    21.4
2024 02 02    08 38 12.7 +17 24 29   0.05028 1.0355   175.0     4.7    21.6
2024 02 03    08 31 05.1 +17 45 29   0.05116 1.0362   172.3     7.3    21.7
...
2024 02 09    07 53 57.1 +19 18 42   0.05790 1.0402   157.3    21.4    22.5
...
2024 02 17    07 20 45.4 +20 18 27   0.06987 1.0435   141.4    36.2    23.4
...
2024 03 03    06 56 23.1 +20 46 32   0.09623 1.0436   120.6    54.9    24.6
M. P. C. Staff               (C) Copyright 2024 MPC           M.P.E.C. 2024-C28
    
    
More information about the Iaude
mailing list